User: anonymous   Login
Location: Lower Kingswood
(51.2667°N, 0.2167°W)
Time: 00:01:26
(UTC+00:00)
Language:

Cosmos 2266 Rocket - Orbit

View from above orbital plane
View from above orbital plane
View from above satellite
View from above satellite

Ground track
Ground track

The orbit data is extracted from the following two-line orbital elements,

1 22889U 93070B   24055.40439434  .00000146  00000-0  12901-3 0  9992
2 22889  82.9454 299.6942 0048863 219.0791 140.6834 13.78080300523851
Epoch (UTC): 24 February 2024 09:42:19
Eccentricity: 0.0048863
inclination: 82.9454°
perigee height: 935 km
apogee height: 1006 km
right ascension of ascending node: 299.6942°
argument of perigee: 219.0791°
revolutions per day: 13.78080300
mean anomaly at epoch: 140.6834°
orbit number at epoch: 52385

The dashed part of the orbit path shows where the satellite is in the earth's shadow,  

DLR